Location: Ch?enovice
(49.7164°N, 15.2160°E)
Time: 20:18:20
(UTC+00:00)

Cosmos 1980 Rocket - Pass Details

Date: 23 May 2024
Orbit: 827 x 851 km, 71.0° (Epoch: 20 June)

Event Time Altitude Azimuth Distance (km) Brightness Sun altitude
Rises 01:05:46 0° 318° (NW) 3,427 5.6 -14.0°
Reaches altitude 10° 01:09:17 10° 296° (WNW) 2,485 4.6 -13.7°
Maximum altitude 01:12:21 15° 263° (W) 2,146 3.9 -13.4°
Enters shadow 01:13:54 13° 245° (WSW) 2,234 3.9 -13.3°
